owner,sensor,date,latitude,longitude,sea_surface_height_above_sea_level,qcFlag 
COMPS,ioos:station:USF.COMPS:FHP:1,2008-07-01T00:00:00Z,28.1530,-82.8010,-0.582,1111122 
COMPS,ioos:station:USF.COMPS:FHP:1,2008-07-01T00:06:00Z,28.1530,-82.8010,-0.582,1111122 
COMPS,ioos:station:USF.COMPS:FHP:1,2008-07-01T00:12:00Z,28.1530,-82.8010,-0.582,1111122 
COMPS,ioos:station:USF.COMPS:FHP:1,2008-07-01T00:18:00Z,28.1530,-82.8010,-0.581,1111122 
COMPS,ioos:station:USF.COMPS:FHP:1,2008-07-01T00:24:00Z,28.1530,-82.8010,-0.581,1111122 
COMPS,ioos:station:USF.COMPS:FHP:1,2008-07-01T00:30:00Z,28.1530,-82.8010,-0.515,1111122 
COMPS,ioos:station:USF.COMPS:FHP:1,2008-07-01T00:36:00Z,28.1530,-82.8010,-0.491,1111122 
COMPS,ioos:station:USF.COMPS:FHP:1,2008-07-01T00:42:00Z,28.1530,-82.8010,-0.464,1111122 
COMPS,ioos:station:USF.COMPS:FHP:1,2008-07-01T00:48:00Z,28.1530,-82.8010,-0.442,1111122 
COMPS,ioos:station:USF.COMPS:FHP:1,2008-07-01T00:54:00Z,28.1530,-82.8010,-0.419,1111122 
COMPS,ioos:station:USF.COMPS:FHP:1,2008-07-01T01:00:00Z,28.1530,-82.8010,-0.396,1111122 
COMPS,ioos:station:USF.COMPS:FHP:1,2008-07-01T01:06:00Z,28.1530,-82.8010,-0.373,1111122 
COMPS,ioos:station:USF.COMPS:FHP:1,2008-07-01T01:12:00Z,28.1530,-82.8010,-0.342,1111122 
COMPS,ioos:station:USF.COMPS:FHP:1,2008-07-01T01:18:00Z,28.1530,-82.8010,-0.318,1111122 
COMPS,ioos:station:USF.COMPS:FHP:1,2008-07-01T01:24:00Z,28.1530,-82.8010,-0.29,1111122 
COMPS,ioos:station:USF.COMPS:FHP:1,2008-07-01T01:30:00Z,28.1530,-82.8010,-0.259,1111122 
COMPS,ioos:station:USF.COMPS:FHP:1,2008-07-01T01:36:00Z,28.1530,-82.8010,-0.24,1111122 
COMPS,ioos:station:USF.COMPS:FHP:1,2008-07-01T01:42:00Z,28.1530,-82.8010,-0.216,1111122 
COMPS,ioos:station:USF.COMPS:FHP:1,2008-07-01T01:48:00Z,28.1530,-82.8010,-0.186,1111122 
COMPS,ioos:station:USF.COMPS:FHP:1,2008-07-01T01:54:00Z,28.1530,-82.8010,-0.163,1111122 
COMPS,ioos:station:USF.COMPS:FHP:1,2008-07-01T02:00:00Z,28.1530,-82.8010,-0.139,1111122 
COMPS,ioos:station:USF.COMPS:FHP:1,2008-07-01T02:06:00Z,28.1530,-82.8010,-0.111,1111122 
COMPS,ioos:station:USF.COMPS:FHP:1,2008-07-01T02:12:00Z,28.1530,-82.8010,-0.092,1111122 
COMPS,ioos:station:USF.COMPS:FHP:1,2008-07-01T02:18:00Z,28.1530,-82.8010,-0.073,1111122 
COMPS,ioos:station:USF.COMPS:FHP:1,2008-07-01T02:24:00Z,28.1530,-82.8010,-0.055,1111122 
COMPS,ioos:station:USF.COMPS:FHP:1,2008-07-01T02:30:00Z,28.1530,-82.8010,-0.042,1111122 
COMPS,ioos:station:USF.COMPS:FHP:1,2008-07-01T02:36:00Z,28.1530,-82.8010,-0.018,1111122 
COMPS,ioos:station:USF.COMPS:FHP:1,2008-07-01T02:42:00Z,28.1530,-82.8010,-0.001,1111122 
COMPS,ioos:station:USF.COMPS:FHP:1,2008-07-01T02:48:00Z,28.1530,-82.8010,0.015,1111122 
COMPS,ioos:station:USF.COMPS:FHP:1,2008-07-01T02:54:00Z,28.1530,-82.8010,0.031,1111122 
COMPS,ioos:station:USF.COMPS:FHP:1,2008-07-01T03:00:00Z,28.1530,-82.8010,0.042,1111122 
COMPS,ioos:station:USF.COMPS:FHP:1,2008-07-01T03:06:00Z,28.1530,-82.8010,0.05,1111122 
COMPS,ioos:station:USF.COMPS:FHP:1,2008-07-01T03:12:00Z,28.1530,-82.8010,0.054,1111122 
COMPS,ioos:station:USF.COMPS:FHP:1,2008-07-01T03:18:00Z,28.1530,-82.8010,0.066,1111122 
COMPS,ioos:station:USF.COMPS:FHP:1,2008-07-01T03:24:00Z,28.1530,-82.8010,0.071,1111122 
COMPS,ioos:station:USF.COMPS:FHP:1,2008-07-01T03:30:00Z,28.1530,-82.8010,0.078,1111122 
COMPS,ioos:station:USF.COMPS:FHP:1,2008-07-01T03:36:00Z,28.1530,-82.8010,0.09,1111122 
COMPS,ioos:station:USF.COMPS:FHP:1,2008-07-01T03:42:00Z,28.1530,-82.8010,0.097,1111122 
COMPS,ioos:station:USF.COMPS:FHP:1,2008-07-01T03:48:00Z,28.1530,-82.8010,0.104,1111122 
COMPS,ioos:station:USF.COMPS:FHP:1,2008-07-01T03:54:00Z,28.1530,-82.8010,0.111,1111122 
COMPS,ioos:station:USF.COMPS:FHP:1,2008-07-01T04:00:00Z,28.1530,-82.8010,0.115,1111122 
COMPS,ioos:station:USF.COMPS:FHP:1,2008-07-01T04:06:00Z,28.1530,-82.8010,0.115,1111122 
COMPS,ioos:station:USF.COMPS:FHP:1,2008-07-01T04:12:00Z,28.1530,-82.8010,0.119,1111122 
COMPS,ioos:station:USF.COMPS:FHP:1,2008-07-01T04:18:00Z,28.1530,-82.8010,0.124,1111122 
COMPS,ioos:station:USF.COMPS:FHP:1,2008-07-01T04:24:00Z,28.1530,-82.8010,0.131,1111122 
COMPS,ioos:station:USF.COMPS:FHP:1,2008-07-01T04:30:00Z,28.1530,-82.8010,0.139,1111122 
COMPS,ioos:station:USF.COMPS:FHP:1,2008-07-01T04:36:00Z,28.1530,-82.8010,0.141,1111122 
COMPS,ioos:station:USF.COMPS:FHP:1,2008-07-01T04:42:00Z,28.1530,-82.8010,0.144,1111122 
COMPS,ioos:station:USF.COMPS:FHP:1,2008-07-01T04:48:00Z,28.1530,-82.8010,0.147,1111122 
COMPS,ioos:station:USF.COMPS:FHP:1,2008-07-01T04:54:00Z,28.1530,-82.8010,0.135,1111122 
COMPS,ioos:station:USF.COMPS:FHP:1,2008-07-01T05:00:00Z,28.1530,-82.8010,0.128,1111122 
COMPS,ioos:station:USF.COMPS:FHP:1,2008-07-01T05:06:00Z,28.1530,-82.8010,0.116,1111122 
COMPS,ioos:station:USF.COMPS:FHP:1,2008-07-01T05:12:00Z,28.1530,-82.8010,0.107,1111122 
COMPS,ioos:station:USF.COMPS:FHP:1,2008-07-01T05:18:00Z,28.1530,-82.8010,0.095,1111122 
COMPS,ioos:station:USF.COMPS:FHP:1,2008-07-01T05:24:00Z,28.1530,-82.8010,0.082,1111122 
COMPS,ioos:station:USF.COMPS:FHP:1,2008-07-01T05:30:00Z,28.1530,-82.8010,0.066,1111122 
COMPS,ioos:station:USF.COMPS:FHP:1,2008-07-01T05:36:00Z,28.1530,-82.8010,0.051,1111122 
COMPS,ioos:station:USF.COMPS:FHP:1,2008-07-01T05:42:00Z,28.1530,-82.8010,0.029,1111122 
COMPS,ioos:station:USF.COMPS:FHP:1,2008-07-01T05:48:00Z,28.1530,-82.8010,0.016,1111122 
COMPS,ioos:station:USF.COMPS:FHP:1,2008-07-01T05:54:00Z,28.1530,-82.8010,0.009,1111122 
COMPS,ioos:station:USF.COMPS:FHP:1,2008-07-01T06:00:00Z,28.1530,-82.8010,-0.002,1111122 
COMPS,ioos:station:USF.COMPS:FHP:1,2008-07-01T06:06:00Z,28.1530,-82.8010,-0.021,1111122 
COMPS,ioos:station:USF.COMPS:FHP:1,2008-07-01T06:12:00Z,28.1530,-82.8010,-0.025,1111122 
COMPS,ioos:station:USF.COMPS:FHP:1,2008-07-01T06:18:00Z,28.1530,-82.8010,-0.042,1111122 
COMPS,ioos:station:USF.COMPS:FHP:1,2008-07-01T06:24:00Z,28.1530,-82.8010,-0.043,1111122 
COMPS,ioos:station:USF.COMPS:FHP:1,2008-07-01T06:30:00Z,28.1530,-82.8010,-0.044,1111122 
COMPS,ioos:station:USF.COMPS:FHP:1,2008-07-01T06:36:00Z,28.1530,-82.8010,-0.046,1111122 
COMPS,ioos:station:USF.COMPS:FHP:1,2008-07-01T06:42:00Z,28.1530,-82.8010,-0.045,1111122 
COMPS,ioos:station:USF.COMPS:FHP:1,2008-07-01T06:48:00Z,28.1530,-82.8010,-0.031,1111122 
COMPS,ioos:station:USF.COMPS:FHP:1,2008-07-01T06:54:00Z,28.1530,-82.8010,-0.029,1111122 
COMPS,ioos:station:USF.COMPS:FHP:1,2008-07-01T07:00:00Z,28.1530,-82.8010,-0.016,1111122 
COMPS,ioos:station:USF.COMPS:FHP:1,2008-07-01T07:06:00Z,28.1530,-82.8010,-0.018,1111122 
COMPS,ioos:station:USF.COMPS:FHP:1,2008-07-01T07:12:00Z,28.1530,-82.8010,-0.012,1111122 
COMPS,ioos:station:USF.COMPS:FHP:1,2008-07-01T07:18:00Z,28.1530,-82.8010,-0.011,1111122 
COMPS,ioos:station:USF.COMPS:FHP:1,2008-07-01T07:24:00Z,28.1530,-82.8010,-0.027,1111122 
COMPS,ioos:station:USF.COMPS:FHP:1,2008-07-01T07:30:00Z,28.1530,-82.8010,-0.025,1111122 
COMPS,ioos:station:USF.COMPS:FHP:1,2008-07-01T07:36:00Z,28.1530,-82.8010,-0.031,1111122 
COMPS,ioos:station:USF.COMPS:FHP:1,2008-07-01T07:42:00Z,28.1530,-82.8010,-0.031,1111122 
COMPS,ioos:station:USF.COMPS:FHP:1,2008-07-01T07:48:00Z,28.1530,-82.8010,-0.042,1111122 
COMPS,ioos:station:USF.COMPS:FHP:1,2008-07-01T07:54:00Z,28.1530,-82.8010,-0.047,1111122 
COMPS,ioos:station:USF.COMPS:FHP:1,2008-07-01T08:00:00Z,28.1530,-82.8010,-0.056,1111122 
COMPS,ioos:station:USF.COMPS:FHP:1,2008-07-01T08:06:00Z,28.1530,-82.8010,-0.063,1111122 
COMPS,ioos:station:USF.COMPS:FHP:1,2008-07-01T08:12:00Z,28.1530,-82.8010,-0.062,1111122 
COMPS,ioos:station:USF.COMPS:FHP:1,2008-07-01T08:18:00Z,28.1530,-82.8010,-0.072,1111122 
COMPS,ioos:station:USF.COMPS:FHP:1,2008-07-01T08:24:00Z,28.1530,-82.8010,-0.08,1111122 
COMPS,ioos:station:USF.COMPS:FHP:1,2008-07-01T08:30:00Z,28.1530,-82.8010,-0.085,1111122 
COMPS,ioos:station:USF.COMPS:FHP:1,2008-07-01T08:36:00Z,28.1530,-82.8010,-0.083,1111122 
COMPS,ioos:station:USF.COMPS:FHP:1,2008-07-01T08:42:00Z,28.1530,-82.8010,-0.084,1111122 
COMPS,ioos:station:USF.COMPS:FHP:1,2008-07-01T08:48:00Z,28.1530,-82.8010,-0.067,1111122 
COMPS,ioos:station:USF.COMPS:FHP:1,2008-07-01T08:54:00Z,28.1530,-82.8010,-0.066,1111122 
COMPS,ioos:station:USF.COMPS:FHP:1,2008-07-01T09:00:00Z,28.1530,-82.8010,-0.061,1111122 
COMPS,ioos:station:USF.COMPS:FHP:1,2008-07-01T09:06:00Z,28.1530,-82.8010,-0.05,1111122 
COMPS,ioos:station:USF.COMPS:FHP:1,2008-07-01T09:12:00Z,28.1530,-82.8010,-0.051,1111122 
COMPS,ioos:station:USF.COMPS:FHP:1,2008-07-01T09:18:00Z,28.1530,-82.8010,-0.045,1111122 
COMPS,ioos:station:USF.COMPS:FHP:1,2008-07-01T09:24:00Z,28.1530,-82.8010,-0.04,1111122 
COMPS,ioos:station:USF.COMPS:FHP:1,2008-07-01T09:30:00Z,28.1530,-82.8010,-0.038,1111122 
COMPS,ioos:station:USF.COMPS:FHP:1,2008-07-01T09:36:00Z,28.1530,-82.8010,-0.03,1111122 
COMPS,ioos:station:USF.COMPS:FHP:1,2008-07-01T09:42:00Z,28.1530,-82.8010,-0.03,1111122 
COMPS,ioos:station:USF.COMPS:FHP:1,2008-07-01T09:48:00Z,28.1530,-82.8010,-0.023,1111122 
COMPS,ioos:station:USF.COMPS:FHP:1,2008-07-01T09:54:00Z,28.1530,-82.8010,-0.009,1111122 
COMPS,ioos:station:USF.COMPS:FHP:1,2008-07-01T10:00:00Z,28.1530,-82.8010,0.006,1111122 
COMPS,ioos:station:USF.COMPS:FHP:1,2008-07-01T10:06:00Z,28.1530,-82.8010,0.017,1111122 
COMPS,ioos:station:USF.COMPS:FHP:1,2008-07-01T10:12:00Z,28.1530,-82.8010,0.03,1111122 
COMPS,ioos:station:USF.COMPS:FHP:1,2008-07-01T10:18:00Z,28.1530,-82.8010,0.046,1111122 
COMPS,ioos:station:USF.COMPS:FHP:1,2008-07-01T10:24:00Z,28.1530,-82.8010,0.055,1111122 
COMPS,ioos:station:USF.COMPS:FHP:1,2008-07-01T10:30:00Z,28.1530,-82.8010,0.065,1111122 
COMPS,ioos:station:USF.COMPS:FHP:1,2008-07-01T10:36:00Z,28.1530,-82.8010,0.08,1111122 
COMPS,ioos:station:USF.COMPS:FHP:1,2008-07-01T10:42:00Z,28.1530,-82.8010,0.088,1111122 
COMPS,ioos:station:USF.COMPS:FHP:1,2008-07-01T10:48:00Z,28.1530,-82.8010,0.099,1111122 
COMPS,ioos:station:USF.COMPS:FHP:1,2008-07-01T10:54:00Z,28.1530,-82.8010,0.114,1111122 
COMPS,ioos:station:USF.COMPS:FHP:1,2008-07-01T11:00:00Z,28.1530,-82.8010,0.127,1111122 
COMPS,ioos:station:USF.COMPS:FHP:1,2008-07-01T11:06:00Z,28.1530,-82.8010,0.149,1111122 
COMPS,ioos:station:USF.COMPS:FHP:1,2008-07-01T11:12:00Z,28.1530,-82.8010,0.173,1111122 
COMPS,ioos:station:USF.COMPS:FHP:1,2008-07-01T11:18:00Z,28.1530,-82.8010,0.195,1111122 
COMPS,ioos:station:USF.COMPS:FHP:1,2008-07-01T11:24:00Z,28.1530,-82.8010,0.214,1111122 
COMPS,ioos:station:USF.COMPS:FHP:1,2008-07-01T11:30:00Z,28.1530,-82.8010,0.235,1111122 
COMPS,ioos:station:USF.COMPS:FHP:1,2008-07-01T11:36:00Z,28.1530,-82.8010,0.257,1111122 
COMPS,ioos:station:USF.COMPS:FHP:1,2008-07-01T11:42:00Z,28.1530,-82.8010,0.276,1111122 
COMPS,ioos:station:USF.COMPS:FHP:1,2008-07-01T11:48:00Z,28.1530,-82.8010,0.296,1111122 
COMPS,ioos:station:USF.COMPS:FHP:1,2008-07-01T11:54:00Z,28.1530,-82.8010,0.316,1111122 
COMPS,ioos:station:USF.COMPS:FHP:1,2008-07-01T12:00:00Z,28.1530,-82.8010,0.335,1111122 
COMPS,ioos:station:USF.COMPS:FHP:1,2008-07-01T12:06:00Z,28.1530,-82.8010,0.357,1111122 
COMPS,ioos:station:USF.COMPS:FHP:1,2008-07-01T12:12:00Z,28.1530,-82.8010,0.375,1111122 
COMPS,ioos:station:USF.COMPS:FHP:1,2008-07-01T12:18:00Z,28.1530,-82.8010,0.392,1111122 
COMPS,ioos:station:USF.COMPS:FHP:1,2008-07-01T12:24:00Z,28.1530,-82.8010,0.409,1111122 
COMPS,ioos:station:USF.COMPS:FHP:1,2008-07-01T12:30:00Z,28.1530,-82.8010,0.419,1111122 
COMPS,ioos:station:USF.COMPS:FHP:1,2008-07-01T12:36:00Z,28.1530,-82.8010,0.429,1111122 
COMPS,ioos:station:USF.COMPS:FHP:1,2008-07-01T12:42:00Z,28.1530,-82.8010,0.438,1111122 
COMPS,ioos:station:USF.COMPS:FHP:1,2008-07-01T12:48:00Z,28.1530,-82.8010,0.448,1111122 
COMPS,ioos:station:USF.COMPS:FHP:1,2008-07-01T12:54:00Z,28.1530,-82.8010,0.46,1111122 
COMPS,ioos:station:USF.COMPS:FHP:1,2008-07-01T13:00:00Z,28.1530,-82.8010,0.479,1111122 
COMPS,ioos:station:USF.COMPS:FHP:1,2008-07-01T13:06:00Z,28.1530,-82.8010,0.492,1111122 
COMPS,ioos:station:USF.COMPS:FHP:1,2008-07-01T13:12:00Z,28.1530,-82.8010,0.508,1111122 
COMPS,ioos:station:USF.COMPS:FHP:1,2008-07-01T13:18:00Z,28.1530,-82.8010,0.518,1111122 
COMPS,ioos:station:USF.COMPS:FHP:1,2008-07-01T13:24:00Z,28.1530,-82.8010,0.526,1111122 
COMPS,ioos:station:USF.COMPS:FHP:1,2008-07-01T13:30:00Z,28.1530,-82.8010,0.533,1111122 
COMPS,ioos:station:USF.COMPS:FHP:1,2008-07-01T13:36:00Z,28.1530,-82.8010,0.54,1111122 
COMPS,ioos:station:USF.COMPS:FHP:1,2008-07-01T13:42:00Z,28.1530,-82.8010,0.549,1111122 
COMPS,ioos:station:USF.COMPS:FHP:1,2008-07-01T13:48:00Z,28.1530,-82.8010,0.553,1111122 
COMPS,ioos:station:USF.COMPS:FHP:1,2008-07-01T13:54:00Z,28.1530,-82.8010,0.554,1111122 
COMPS,ioos:station:USF.COMPS:FHP:1,2008-07-01T14:00:00Z,28.1530,-82.8010,0.557,1111122 
COMPS,ioos:station:USF.COMPS:FHP:1,2008-07-01T14:06:00Z,28.1530,-82.8010,0.552,1111122 
COMPS,ioos:station:USF.COMPS:FHP:1,2008-07-01T14:12:00Z,28.1530,-82.8010,0.543,1111122 
COMPS,ioos:station:USF.COMPS:FHP:1,2008-07-01T14:18:00Z,28.1530,-82.8010,0.543,1111122 
COMPS,ioos:station:USF.COMPS:FHP:1,2008-07-01T14:24:00Z,28.1530,-82.8010,0.541,1111122 
COMPS,ioos:station:USF.COMPS:FHP:1,2008-07-01T14:30:00Z,28.1530,-82.8010,0.534,1111122 
COMPS,ioos:station:USF.COMPS:FHP:1,2008-07-01T14:36:00Z,28.1530,-82.8010,0.535,1111122 
COMPS,ioos:station:USF.COMPS:FHP:1,2008-07-01T14:42:00Z,28.1530,-82.8010,0.526,1111122 
COMPS,ioos:station:USF.COMPS:FHP:1,2008-07-01T14:48:00Z,28.1530,-82.8010,0.515,1111122 
COMPS,ioos:station:USF.COMPS:FHP:1,2008-07-01T14:54:00Z,28.1530,-82.8010,0.496,1111122 
COMPS,ioos:station:USF.COMPS:FHP:1,2008-07-01T15:00:00Z,28.1530,-82.8010,0.487,1111122 
COMPS,ioos:station:USF.COMPS:FHP:1,2008-07-01T15:06:00Z,28.1530,-82.8010,0.484,1111122 
COMPS,ioos:station:USF.COMPS:FHP:1,2008-07-01T15:12:00Z,28.1530,-82.8010,0.473,1111122 
COMPS,ioos:station:USF.COMPS:FHP:1,2008-07-01T15:18:00Z,28.1530,-82.8010,0.467,1111122 
COMPS,ioos:station:USF.COMPS:FHP:1,2008-07-01T15:24:00Z,28.1530,-82.8010,0.46,1111122 
COMPS,ioos:station:USF.COMPS:FHP:1,2008-07-01T15:30:00Z,28.1530,-82.8010,0.45,1111122 
COMPS,ioos:station:USF.COMPS:FHP:1,2008-07-01T15:36:00Z,28.1530,-82.8010,0.435,1111122 
COMPS,ioos:station:USF.COMPS:FHP:1,2008-07-01T15:42:00Z,28.1530,-82.8010,0.436,1111122 
COMPS,ioos:station:USF.COMPS:FHP:1,2008-07-01T15:48:00Z,28.1530,-82.8010,0.417,1111122 
COMPS,ioos:station:USF.COMPS:FHP:1,2008-07-01T15:54:00Z,28.1530,-82.8010,0.425,1111122 
COMPS,ioos:station:USF.COMPS:FHP:1,2008-07-01T16:00:00Z,28.1530,-82.8010,0.41,1111122 
COMPS,ioos:station:USF.COMPS:FHP:1,2008-07-01T16:06:00Z,28.1530,-82.8010,0.407,1111122 
COMPS,ioos:station:USF.COMPS:FHP:1,2008-07-01T16:12:00Z,28.1530,-82.8010,0.396,1111122 
COMPS,ioos:station:USF.COMPS:FHP:1,2008-07-01T16:18:00Z,28.1530,-82.8010,0.375,1111122 
COMPS,ioos:station:USF.COMPS:FHP:1,2008-07-01T16:24:00Z,28.1530,-82.8010,0.36,1111122 
COMPS,ioos:station:USF.COMPS:FHP:1,2008-07-01T16:30:00Z,28.1530,-82.8010,0.345,1111122 
COMPS,ioos:station:USF.COMPS:FHP:1,2008-07-01T16:36:00Z,28.1530,-82.8010,0.321,1111122 
COMPS,ioos:station:USF.COMPS:FHP:1,2008-07-01T16:42:00Z,28.1530,-82.8010,0.306,1111122 
COMPS,ioos:station:USF.COMPS:FHP:1,2008-07-01T16:48:00Z,28.1530,-82.8010,0.285,1111122 
COMPS,ioos:station:USF.COMPS:FHP:1,2008-07-01T16:54:00Z,28.1530,-82.8010,0.263,1111122 
COMPS,ioos:station:USF.COMPS:FHP:1,2008-07-01T17:00:00Z,28.1530,-82.8010,0.246,1111122 
COMPS,ioos:station:USF.COMPS:FHP:1,2008-07-01T17:06:00Z,28.1530,-82.8010,0.227,1111122 
COMPS,ioos:station:USF.COMPS:FHP:1,2008-07-01T17:12:00Z,28.1530,-82.8010,0.214,1111122 
COMPS,ioos:station:USF.COMPS:FHP:1,2008-07-01T17:18:00Z,28.1530,-82.8010,0.198,1111122 
COMPS,ioos:station:USF.COMPS:FHP:1,2008-07-01T17:24:00Z,28.1530,-82.8010,0.187,1111122 
COMPS,ioos:station:USF.COMPS:FHP:1,2008-07-01T17:30:00Z,28.1530,-82.8010,0.162,1111122 
COMPS,ioos:station:USF.COMPS:FHP:1,2008-07-01T17:36:00Z,28.1530,-82.8010,0.143,1111122 
COMPS,ioos:station:USF.COMPS:FHP:1,2008-07-01T17:42:00Z,28.1530,-82.8010,0.13,1111122 
COMPS,ioos:station:USF.COMPS:FHP:1,2008-07-01T17:48:00Z,28.1530,-82.8010,0.104,1111122 
COMPS,ioos:station:USF.COMPS:FHP:1,2008-07-01T17:54:00Z,28.1530,-82.8010,0.087,1111122 
COMPS,ioos:station:USF.COMPS:FHP:1,2008-07-01T18:00:00Z,28.1530,-82.8010,0.065,1111122 
COMPS,ioos:station:USF.COMPS:FHP:1,2008-07-01T18:06:00Z,28.1530,-82.8010,0.041,1111122 
COMPS,ioos:station:USF.COMPS:FHP:1,2008-07-01T18:12:00Z,28.1530,-82.8010,0.024,1111122 
COMPS,ioos:station:USF.COMPS:FHP:1,2008-07-01T18:18:00Z,28.1530,-82.8010,0.005,1111122 
COMPS,ioos:station:USF.COMPS:FHP:1,2008-07-01T18:24:00Z,28.1530,-82.8010,-0.021,1111122 
COMPS,ioos:station:USF.COMPS:FHP:1,2008-07-01T18:30:00Z,28.1530,-82.8010,-0.048,1111122 
COMPS,ioos:station:USF.COMPS:FHP:1,2008-07-01T18:36:00Z,28.1530,-82.8010,-0.069,1111122 
COMPS,ioos:station:USF.COMPS:FHP:1,2008-07-01T18:42:00Z,28.1530,-82.8010,-0.088,1111122 
COMPS,ioos:station:USF.COMPS:FHP:1,2008-07-01T18:48:00Z,28.1530,-82.8010,-0.112,1111122 
COMPS,ioos:station:USF.COMPS:FHP:1,2008-07-01T18:54:00Z,28.1530,-82.8010,-0.13,1111122 
COMPS,ioos:station:USF.COMPS:FHP:1,2008-07-01T19:00:00Z,28.1530,-82.8010,-0.156,1111122 
COMPS,ioos:station:USF.COMPS:FHP:1,2008-07-01T19:06:00Z,28.1530,-82.8010,-0.18,1111122 
COMPS,ioos:station:USF.COMPS:FHP:1,2008-07-01T19:12:00Z,28.1530,-82.8010,-0.201,1111122 
COMPS,ioos:station:USF.COMPS:FHP:1,2008-07-01T19:18:00Z,28.1530,-82.8010,-0.226,1111122 
COMPS,ioos:station:USF.COMPS:FHP:1,2008-07-01T19:24:00Z,28.1530,-82.8010,-0.251,1111122 
COMPS,ioos:station:USF.COMPS:FHP:1,2008-07-01T19:30:00Z,28.1530,-82.8010,-0.276,1111122 
COMPS,ioos:station:USF.COMPS:FHP:1,2008-07-01T19:36:00Z,28.1530,-82.8010,-0.3,1111122 
COMPS,ioos:station:USF.COMPS:FHP:1,2008-07-01T19:42:00Z,28.1530,-82.8010,-0.323,1111122 
COMPS,ioos:station:USF.COMPS:FHP:1,2008-07-01T19:48:00Z,28.1530,-82.8010,-0.346,1111122 
COMPS,ioos:station:USF.COMPS:FHP:1,2008-07-01T19:54:00Z,28.1530,-82.8010,-0.368,1111122 
COMPS,ioos:station:USF.COMPS:FHP:1,2008-07-01T20:00:00Z,28.1530,-82.8010,-0.389,1111122 
COMPS,ioos:station:USF.COMPS:FHP:1,2008-07-01T20:06:00Z,28.1530,-82.8010,-0.408,1111122 
COMPS,ioos:station:USF.COMPS:FHP:1,2008-07-01T20:12:00Z,28.1530,-82.8010,-0.426,1111122 
COMPS,ioos:station:USF.COMPS:FHP:1,2008-07-01T20:18:00Z,28.1530,-82.8010,-0.443,1111122 
COMPS,ioos:station:USF.COMPS:FHP:1,2008-07-01T20:24:00Z,28.1530,-82.8010,-0.46,1111122 
COMPS,ioos:station:USF.COMPS:FHP:1,2008-07-01T20:30:00Z,28.1530,-82.8010,-0.477,1111122 
COMPS,ioos:station:USF.COMPS:FHP:1,2008-07-01T20:36:00Z,28.1530,-82.8010,-0.491,1111122 
COMPS,ioos:station:USF.COMPS:FHP:1,2008-07-01T20:42:00Z,28.1530,-82.8010,-0.504,1111122 
COMPS,ioos:station:USF.COMPS:FHP:1,2008-07-01T20:48:00Z,28.1530,-82.8010,-0.516,1111122 
COMPS,ioos:station:USF.COMPS:FHP:1,2008-07-01T20:54:00Z,28.1530,-82.8010,-0.527,1111122 
COMPS,ioos:station:USF.COMPS:FHP:1,2008-07-01T21:00:00Z,28.1530,-82.8010,-0.536,1111122 
COMPS,ioos:station:USF.COMPS:FHP:1,2008-07-01T21:06:00Z,28.1530,-82.8010,-0.588,1111122 
COMPS,ioos:station:USF.COMPS:FHP:1,2008-07-01T21:12:00Z,28.1530,-82.8010,-0.586,1111122 
COMPS,ioos:station:USF.COMPS:FHP:1,2008-07-01T21:18:00Z,28.1530,-82.8010,-0.585,1111122 
COMPS,ioos:station:USF.COMPS:FHP:1,2008-07-01T21:24:00Z,28.1530,-82.8010,-0.585,1111122 
COMPS,ioos:station:USF.COMPS:FHP:1,2008-07-01T21:30:00Z,28.1530,-82.8010,-0.585,1111122 
COMPS,ioos:station:USF.COMPS:FHP:1,2008-07-01T21:36:00Z,28.1530,-82.8010,-0.585,1111122 
COMPS,ioos:station:USF.COMPS:FHP:1,2008-07-01T21:42:00Z,28.1530,-82.8010,-0.586,1111122 
COMPS,ioos:station:USF.COMPS:FHP:1,2008-07-01T21:48:00Z,28.1530,-82.8010,-0.586,1111122 
COMPS,ioos:station:USF.COMPS:FHP:1,2008-07-01T21:54:00Z,28.1530,-82.8010,-0.586,1111122 
COMPS,ioos:station:USF.COMPS:FHP:1,2008-07-01T22:00:00Z,28.1530,-82.8010,-0.586,1111122 
COMPS,ioos:station:USF.COMPS:FHP:1,2008-07-01T22:06:00Z,28.1530,-82.8010,-0.586,1111122 
COMPS,ioos:station:USF.COMPS:FHP:1,2008-07-01T22:12:00Z,28.1530,-82.8010,-0.586,1111122 
COMPS,ioos:station:USF.COMPS:FHP:1,2008-07-01T22:18:00Z,28.1530,-82.8010,-0.586,1111122 
COMPS,ioos:station:USF.COMPS:FHP:1,2008-07-01T22:24:00Z,28.1530,-82.8010,-0.586,1111122 
COMPS,ioos:station:USF.COMPS:FHP:1,2008-07-01T22:30:00Z,28.1530,-82.8010,-0.585,1111122 
COMPS,ioos:station:USF.COMPS:FHP:1,2008-07-01T22:36:00Z,28.1530,-82.8010,-0.585,1111122 
COMPS,ioos:station:USF.COMPS:FHP:1,2008-07-01T22:42:00Z,28.1530,-82.8010,-0.584,1111122 
COMPS,ioos:station:USF.COMPS:FHP:1,2008-07-01T22:48:00Z,28.1530,-82.8010,-0.584,1111122 
COMPS,ioos:station:USF.COMPS:FHP:1,2008-07-01T22:54:00Z,28.1530,-82.8010,-0.584,1111122 
COMPS,ioos:station:USF.COMPS:FHP:1,2008-07-01T23:00:00Z,28.1530,-82.8010,-0.584,1111122 
COMPS,ioos:station:USF.COMPS:FHP:1,2008-07-01T23:06:00Z,28.1530,-82.8010,-0.584,1111122 
COMPS,ioos:station:USF.COMPS:FHP:1,2008-07-01T23:12:00Z,28.1530,-82.8010,-0.585,1111122 
COMPS,ioos:station:USF.COMPS:FHP:1,2008-07-01T23:18:00Z,28.1530,-82.8010,-0.585,1111122 
COMPS,ioos:station:USF.COMPS:FHP:1,2008-07-01T23:24:00Z,28.1530,-82.8010,-0.585,1111122 
COMPS,ioos:station:USF.COMPS:FHP:1,2008-07-01T23:30:00Z,28.1530,-82.8010,-0.585,1111122 
COMPS,ioos:station:USF.COMPS:FHP:1,2008-07-01T23:36:00Z,28.1530,-82.8010,-0.585,1111122 
COMPS,ioos:station:USF.COMPS:FHP:1,2008-07-01T23:42:00Z,28.1530,-82.8010,-0.585,1111122 
COMPS,ioos:station:USF.COMPS:FHP:1,2008-07-01T23:48:00Z,28.1530,-82.8010,-0.584,1111122 
COMPS,ioos:station:USF.COMPS:FHP:1,2008-07-01T23:54:00Z,28.1530,-82.8010,-0.584,1111122 
COMPS,ioos:station:USF.COMPS:FHP:1,2008-07-02T00:00:00Z,28.1530,-82.8010,-0.584,1111122 
COMPS,ioos:station:USF.COMPS:FHP:1,2008-07-02T00:06:00Z,28.1530,-82.8010,-0.584,1111122 
COMPS,ioos:station:USF.COMPS:FHP:1,2008-07-02T00:12:00Z,28.1530,-82.8010,-0.584,1111122 
COMPS,ioos:station:USF.COMPS:FHP:1,2008-07-02T00:18:00Z,28.1530,-82.8010,-0.584,1111122 
COMPS,ioos:station:USF.COMPS:FHP:1,2008-07-02T00:24:00Z,28.1530,-82.8010,-0.584,1111122 
COMPS,ioos:station:USF.COMPS:FHP:1,2008-07-02T00:30:00Z,28.1530,-82.8010,-0.583,1111122 
COMPS,ioos:station:USF.COMPS:FHP:1,2008-07-02T00:36:00Z,28.1530,-82.8010,-0.583,1111122 
COMPS,ioos:station:USF.COMPS:FHP:1,2008-07-02T00:42:00Z,28.1530,-82.8010,-0.583,1111122 
COMPS,ioos:station:USF.COMPS:FHP:1,2008-07-02T00:48:00Z,28.1530,-82.8010,-0.583,1111122 
COMPS,ioos:station:USF.COMPS:FHP:1,2008-07-02T00:54:00Z,28.1530,-82.8010,-0.583,1111122 
COMPS,ioos:station:USF.COMPS:FHP:1,2008-07-02T01:00:00Z,28.1530,-82.8010,-0.583,1111122 
COMPS,ioos:station:USF.COMPS:FHP:1,2008-07-02T01:06:00Z,28.1530,-82.8010,-0.582,1111122 
COMPS,ioos:station:USF.COMPS:FHP:1,2008-07-02T01:12:00Z,28.1530,-82.8010,-0.582,1111122 
COMPS,ioos:station:USF.COMPS:FHP:1,2008-07-02T01:18:00Z,28.1530,-82.8010,-0.523,1111122 
COMPS,ioos:station:USF.COMPS:FHP:1,2008-07-02T01:24:00Z,28.1530,-82.8010,-0.498,1111122 
COMPS,ioos:station:USF.COMPS:FHP:1,2008-07-02T01:30:00Z,28.1530,-82.8010,-0.476,1111122 
COMPS,ioos:station:USF.COMPS:FHP:1,2008-07-02T01:36:00Z,28.1530,-82.8010,-0.456,1111122 
COMPS,ioos:station:USF.COMPS:FHP:1,2008-07-02T01:42:00Z,28.1530,-82.8010,-0.435,1111122 
COMPS,ioos:station:USF.COMPS:FHP:1,2008-07-02T01:48:00Z,28.1530,-82.8010,-0.412,1111122 
COMPS,ioos:station:USF.COMPS:FHP:1,2008-07-02T01:54:00Z,28.1530,-82.8010,-0.394,1111122 
COMPS,ioos:station:USF.COMPS:FHP:1,2008-07-02T02:00:00Z,28.1530,-82.8010,-0.373,1111122 
COMPS,ioos:station:USF.COMPS:FHP:1,2008-07-02T02:06:00Z,28.1530,-82.8010,-0.349,1111122 
COMPS,ioos:station:USF.COMPS:FHP:1,2008-07-02T02:12:00Z,28.1530,-82.8010,-0.328,1111122 
COMPS,ioos:station:USF.COMPS:FHP:1,2008-07-02T02:18:00Z,28.1530,-82.8010,-0.305,1111122 
COMPS,ioos:station:USF.COMPS:FHP:1,2008-07-02T02:24:00Z,28.1530,-82.8010,-0.284,1111122 
COMPS,ioos:station:USF.COMPS:FHP:1,2008-07-02T02:30:00Z,28.1530,-82.8010,-0.263,1111122 
COMPS,ioos:station:USF.COMPS:FHP:1,2008-07-02T02:36:00Z,28.1530,-82.8010,-0.236,1111122 
COMPS,ioos:station:USF.COMPS:FHP:1,2008-07-02T02:42:00Z,28.1530,-82.8010,-0.21,1111122 
COMPS,ioos:station:USF.COMPS:FHP:1,2008-07-02T02:48:00Z,28.1530,-82.8010,-0.183,1111122 
COMPS,ioos:station:USF.COMPS:FHP:1,2008-07-02T02:54:00Z,28.1530,-82.8010,-0.156,1111122 